PROBA-1 1 26958U 01049B 25353.93468829 .00003348 00000+0 22334-3 0 9995 2 26958 97.9588 351.3345 0056537 10.3371 349.9003 15.06497549316629 CUTE-1 (CO-55) 1 27844U 03031E 25353.82631339 .00000274 00000+0 13775-3 0 9993 2 27844 98.6762 359.6379 0009414 353.0226 7.0821 14.24185021166140 CUBESAT XI-IV (CO-57) 1 27848U 03031J 25353.44482588 .00000234 00000+0 12209-3 0 9992 2 27848 98.6791 359.1180 0009673 12.1508 347.9902 14.23492007165806 APRIZESAT 4 1 35684U 09041D 25354.13866382 .00000667 00000+0 86895-4 0 9994 2 35684 98.1632 60.7664 0043587 180.5075 179.6102 14.83508171884812 APRIZESAT 3 1 35686U 09041F 25353.96600765 .00000957 00000+0 89404-4 0 9998 2 35686 98.1798 133.9877 0061548 299.4639 60.0448 14.95445776889588 PROBA-2 1 36037U 09059B 25354.07226664 .00000220 00000+0 61842-4 0 9992 2 36037 98.2372 174.9460 0014265 112.1947 248.0765 14.54716908855483 APRIZESAT 5 1 37792U 11044E 25353.54347370 .00000795 00000+0 10894-3 0 9994 2 37792 98.2367 276.6673 0051680 220.0867 139.6526 14.80589478772201 APRIZESAT 6 1 37793U 11044F 25353.98887029 .00000709 00000+0 10829-3 0 9996 2 37793 98.2462 255.7671 0042303 300.2769 70.0604 14.76550971770707 PROBA-V 1 39159U 13021A 25353.89029846 .00000060 00000+0 44418-4 0 9998 2 39159 98.3394 336.5489 0003199 308.9869 51.1025 14.23549486655600 APRIZESAT 7 1 39416U 13066A 25351.58791045 .00001184 00000+0 12412-3 0 9990 2 39416 97.7478 302.7623 0037879 93.0669 267.4884 14.90916766654167 APRIZESAT 8 1 39425U 13066K 25353.59340429 .00000765 00000+0 89669-4 0 9992 2 39425 97.8013 298.8707 0046941 155.1126 205.2368 14.87128434652976 BUGSAT-1 (TITA) 1 40014U 14033E 25354.19319987 .00004202 00000+0 23706-3 0 9994 2 40014 98.0564 71.5119 0030629 72.3650 288.0920 15.13373336628741 SAUDISAT 4 1 40016U 14033G 25354.15180495 .00000568 00000+0 82335-4 0 9997 2 40016 97.7303 141.8111 0043847 296.9722 62.7015 14.79181880619602 APRIZESAT 9 1 40018U 14033J 25353.93607969 .00000438 00000+0 72074-4 0 9999 2 40018 97.8797 126.8533 0067669 57.3511 303.4202 14.73897266617153 APRIZESAT 10 1 40019U 14033K 25353.58805005 .00000531 00000+0 91134-4 0 9994 2 40019 97.9413 119.8729 0080251 126.8138 234.0465 14.70608073615856 TECHDEMOSAT-1 (TDS-1) 1 40076U 14037H 25354.16904932 .00005725 00000+0 36060-3 0 9991 2 40076 98.3669 324.2934 0007788 138.4130 221.7690 15.09598101621181 TECHNOSAT 1 42829U 17042E 25354.18269795 .00002604 00000+0 19480-3 0 9991 2 42829 97.4053 154.0688 0017791 350.3356 9.7526 15.03467294459791 FLYING LAPTOP 1 42831U 17042G 25354.20699837 .00001621 00000+0 13478-3 0 9990 2 42831 97.4247 152.4862 0014540 24.8757 335.3165 14.99955569459611 HAWK-A 1 43765U 18099H 25354.15076684 .00006078 00000+0 26676-3 0 9998 2 43765 97.4204 43.7972 0036809 192.4172 167.6161 15.21698648385843 HAWK-B 1 43794U 18099AN 25353.11539818 .00005549 00000+0 25618-3 0 9995 2 43794 97.4255 42.5384 0033140 212.4647 147.4550 15.20130641385650 HAWK-C 1 43799U 18099AT 25354.10919130 .00006467 00000+0 25810-3 0 9993 2 43799 97.4178 43.8552 0043270 196.1504 163.8357 15.24637378386599 SALSAT 1 46495U 20068K 25353.48061531 .00006196 00000+0 24069-3 0 9995 2 46495 97.8779 341.1169 0009485 202.4725 157.6098 15.26432785287916 HAWK-2C 1 47502U 21006CT 25354.08408405 .00005527 00000+0 18243-3 0 9994 2 47502 97.2552 37.0343 0008821 117.5000 242.7140 15.31778186272056 HAWK-2A 1 47505U 21006CW 25354.08716676 .00005072 00000+0 16761-3 0 9997 2 47505 97.2596 37.6104 0008341 119.8130 240.3943 15.31782108272058 HAWK-2B 1 47508U 21006CZ 25354.08443006 .00005579 00000+0 18408-3 0 9996 2 47508 97.2463 36.2423 0009057 118.3334 241.8822 15.31778610272053 HAWK-3B 1 48931U 21059BE 25353.99338168 .00019297 00000+0 28407-3 0 9998 2 48931 97.6691 170.6929 0005179 268.1047 91.9613 15.55472919249876 HAWK-3C 1 48948U 21059BX 25353.99313747 .00019990 00000+0 29417-3 0 9994 2 48948 97.6851 176.0187 0005566 268.3275 91.7341 15.55472169249876 HAWK-3A 1 48957U 21059CG 25353.99297676 .00019326 00000+0 28451-3 0 9996 2 48957 97.6780 173.3839 0005234 269.2585 90.8068 15.55471712249876 HAWK-5C 1 52754U 22057Y 25353.89925726 .00012121 00000+0 26917-3 0 9999 2 52754 97.6371 138.3005 0005650 9.9193 350.2165 15.43844834198616 HAWK-5B 1 52756U 22057AA 25353.89908941 .00012062 00000+0 26788-3 0 9991 2 52756 97.6357 136.6558 0005660 6.0847 354.0468 15.43842842198616 HAWK-5A 1 52757U 22057AB 25353.89885814 .00012351 00000+0 27431-3 0 9992 2 52757 97.6368 137.4799 0005899 6.8626 353.2701 15.43835902198612 HAWK-6B 1 55324U 23011A 25353.58505013 .00004548 00000+0 21096-3 0 9992 2 55324 40.5159 317.9428 0003893 237.1625 122.8809 15.20726166160472 HAWK-6C 1 55326U 23011C 25353.58443618 .00004464 00000+0 20718-3 0 9993 2 55326 40.4846 315.0285 0003451 228.2157 131.8357 15.20724389160481 HAWK-6A 1 55327U 23011D 25353.58445715 .00004478 00000+0 20784-3 0 9992 2 55327 40.5006 316.5265 0003230 232.9819 127.0694 15.20724540160487 HAWK-7A 1 56191U 23054P 25354.11451889 .00005012 00000+0 18119-3 0 9992 2 56191 97.2932 240.7400 0009946 341.4767 18.6110 15.28852229149693 HAWK-7B 1 56193U 23054R 25354.11432380 .00002168 00000+0 79835-4 0 9991 2 56193 97.2883 238.9410 0009582 341.5597 18.5294 15.28866531149691 HAWK-7C 1 56200U 23054Y 25353.65595211 .00004641 00000+0 16786-3 0 9994 2 56200 97.2984 239.3116 0009619 351.2410 8.8661 15.28881309149626